�N����,����,�~����,�C��,���x,�C��,����,���ϕ���,�ő�u�ԕ���,�ő厞����,���˗�,�I�_���x,�n�����x,�ő啗���N��,DTYPE
"22/02/22","00:10",0.0,0.3,82.2,1018.0,284.9,1.7,4.3,324.4,0.00,-2.3,5.3,"00:09:04",1
"22/02/22","00:20",0.0,0.5,82.1,1018.2,275.6,1.7,3.4,306.0,0.00,-2.2,5.4,"00:10:24",1
"22/02/22","00:30",0.0,0.4,82.1,1018.2,264.7,1.3,3.2,318.9,0.00,-2.3,5.2,"00:28:48",1
"22/02/22","00:40",0.0,0.4,82.1,1017.8,278.6,1.6,2.5,305.4,0.00,-2.3,5.3,"00:39:52",1
"22/02/22","00:50",0.0,0.2,82.0,1017.5,301.1,1.2,2.8,300.0,0.00,-2.5,5.2,"00:42:56",1
"22/02/22","01:00",0.0,-0.1,82.5,1017.8,237.4,0.6,1.8,209.0,0.00,-2.7,5.0,"00:59:36",1
"22/02/22","01:10",0.0,0.0,82.9,1018.0,246.0,1.2,2.5,285.6,0.00,-2.5,5.1,"01:07:12",1
"22/02/22","01:20",0.0,0.1,82.9,1017.8,283.7,1.7,4.3,308.4,0.00,-2.4,5.1,"01:16:16",1
"22/02/22","01:30",0.0,0.1,82.8,1018.0,284.6,2.1,4.2,294.2,0.00,-2.4,5.2,"01:27:52",1
"22/02/22","01:40",0.0,0.3,82.5,1017.8,266.3,2.6,4.4,246.6,0.00,-2.3,5.0,"01:39:56",1
"22/02/22","01:50",0.0,0.4,81.8,1017.5,274.2,2.6,5.5,205.1,0.00,-2.3,5.1,"01:41:58",1
"22/02/22","02:00",0.0,0.3,81.1,1017.8,307.7,3.0,5.4,311.4,0.00,-2.5,5.2,"01:55:40",1
"22/02/22","02:10",0.0,-0.3,81.2,1017.8,296.8,1.6,3.7,263.2,0.00,-3.1,4.7,"02:01:04",1
"22/02/22","02:20",0.0,-0.1,81.4,1017.8,275.3,2.0,4.0,248.2,0.00,-2.9,4.9,"02:14:56",1
"22/02/22","02:30",0.0,0.0,81.3,1017.8,291.4,2.5,4.0,262.2,0.00,-2.8,5.1,"02:27:04",1
"22/02/22","02:40",0.0,0.1,80.8,1017.8,291.4,3.1,5.1,309.9,0.00,-2.8,5.0,"02:38:16",1
"22/02/22","02:50",0.0,0.2,79.9,1018.0,281.5,2.8,4.4,264.7,0.00,-2.8,4.8,"02:41:40",1
"22/02/22","03:00",0.0,0.1,79.3,1017.8,285.3,2.5,4.1,317.8,0.00,-3.0,4.8,"02:53:20",1
"22/02/22","03:10",0.0,-0.1,79.0,1018.0,305.9,2.0,3.4,319.0,0.00,-3.3,4.7,"03:05:20",1
"22/02/22","03:20",0.0,-0.3,79.1,1017.8,290.0,1.3,2.8,269.4,0.00,-3.4,4.7,"03:19:28",1
"22/02/22","03:30",0.0,-0.2,79.1,1017.1,306.7,2.1,4.0,330.7,0.00,-3.3,4.7,"03:27:12",1
"22/02/22","03:40",0.0,-0.9,79.6,1016.6,317.2,1.0,2.1,264.7,0.00,-3.9,4.7,"03:38:24",1
"22/02/22","03:50",0.0,-1.0,80.4,1016.8,326.9,1.3,2.0,302.8,0.00,-3.9,4.7,"03:43:36",1
"22/02/22","04:00",0.0,-1.2,81.2,1016.6,338.0,1.3,1.9,329.9,0.00,-4.0,4.6,"03:50:48",1
"22/02/22","04:10",0.0,-1.4,81.9,1016.4,314.7,1.1,1.9,315.3,0.00,-4.0,4.7,"04:09:42",1
"22/02/22","04:20",0.0,-0.9,82.1,1015.9,300.3,1.8,3.5,333.1,0.00,-3.5,4.6,"04:13:28",1
"22/02/22","04:30",0.0,-0.6,81.4,1016.4,319.8,2.2,3.7,303.8,0.00,-3.3,4.6,"04:23:28",1
"22/02/22","04:40",0.0,-1.2,81.3,1016.1,328.8,1.2,2.1,337.2,0.00,-3.9,4.4,"04:30:08",1
"22/02/22","04:50",0.0,-1.1,81.7,1015.9,321.1,1.7,4.0,313.2,0.00,-3.8,4.4,"04:44:00",1
"22/02/22","05:00",0.0,-0.7,81.5,1016.4,300.7,2.0,3.5,303.1,0.00,-3.4,4.3,"04:55:04",1
"22/02/22","05:10",0.0,-0.6,80.8,1016.1,294.9,2.0,2.6,286.3,0.00,-3.4,4.4,"05:06:32",1
"22/02/22","05:20",0.0,-0.5,80.0,1016.4,289.5,2.0,3.1,317.3,0.00,-3.5,4.4,"05:16:08",1
"22/02/22","05:30",0.0,0.2,78.2,1016.4,282.6,3.2,4.9,334.9,0.00,-3.1,4.4,"05:28:20",1
"22/02/22","05:40",0.0,0.5,75.7,1016.1,290.6,3.6,5.5,313.7,0.00,-3.2,4.3,"05:38:22",1
"22/02/22","05:50",0.0,0.7,73.5,1016.6,298.2,4.2,6.7,338.3,0.00,-3.4,4.3,"05:47:56",1
"22/02/22","06:00",0.0,0.8,72.2,1016.4,299.7,4.6,9.3,329.2,0.00,-3.6,4.4,"05:51:22",1
"22/02/22","06:10",0.0,0.8,71.9,1016.1,300.5,4.7,7.3,314.7,0.00,-3.6,4.2,"06:06:50",1
"22/02/22","06:20",0.0,0.7,71.9,1016.4,291.1,4.0,5.2,289.0,0.00,-3.7,4.3,"06:12:26",1
"22/02/22","06:30",0.0,0.6,72.0,1016.4,291.0,4.0,6.4,330.9,0.00,-3.8,4.2,"06:24:52",1
"22/02/22","06:40",0.0,0.6,72.3,1015.9,294.9,4.2,7.9,322.9,0.00,-3.8,4.2,"06:33:46",1
"22/02/22","06:50",0.0,0.6,72.4,1016.1,303.1,4.6,6.7,331.4,0.00,-3.7,4.3,"06:43:16",1
"22/02/22","07:00",0.0,0.5,72.8,1016.1,310.9,4.7,6.8,324.6,0.00,-3.8,4.2,"06:50:50",1
"22/02/22","07:10",0.0,0.5,73.3,1015.6,310.1,4.6,7.7,323.5,0.00,-3.7,4.2,"07:06:42",1
"22/02/22","07:20",0.0,0.5,73.8,1015.6,310.2,4.2,6.6,307.6,0.00,-3.6,4.3,"07:15:58",1
"22/02/22","07:30",0.0,0.7,74.2,1015.9,310.6,4.9,6.8,326.4,0.00,-3.3,4.1,"07:26:56",1
"22/02/22","07:40",0.0,0.9,74.1,1015.9,307.0,5.0,7.3,341.4,0.00,-3.1,4.1,"07:39:02",1
"22/02/22","07:50",0.0,1.0,74.0,1015.9,314.4,5.4,6.8,334.4,0.01,-3.1,4.2,"07:42:12",1
"22/02/22","08:00",0.0,1.2,73.8,1016.4,307.4,5.4,7.8,304.8,0.02,-2.9,4.1,"07:57:30",1
"22/02/22","08:10",0.0,1.4,73.4,1016.4,304.3,5.0,9.7,317.9,0.04,-2.8,4.0,"08:05:00",1
"22/02/22","08:20",0.0,1.4,72.7,1016.4,304.2,5.0,7.3,307.9,0.03,-2.9,4.1,"08:12:18",1
"22/02/22","08:30",0.0,1.4,72.3,1016.6,302.6,4.6,7.3,336.4,0.02,-3.0,4.2,"08:25:06",1
"22/02/22","08:40",0.0,1.6,72.8,1016.4,303.8,5.4,8.8,314.3,0.06,-2.7,4.0,"08:38:46",1
"22/02/22","08:50",0.0,2.2,71.9,1016.6,301.9,5.9,9.4,324.2,0.15,-2.3,4.0,"08:46:42",1
"22/02/22","09:00",0.0,2.6,70.6,1016.6,300.3,5.4,8.1,334.9,0.17,-2.2,4.1,"08:53:06",1
"22/02/22","09:10",0.0,2.8,69.5,1016.6,304.5,5.6,10.0,309.1,0.20,-2.2,3.9,"09:04:08",1
"22/02/22","09:20",0.0,3.2,68.6,1017.1,299.2,5.7,10.2,333.0,0.23,-2.0,4.0,"09:10:16",1
"22/02/22","09:30",0.0,3.5,67.9,1016.8,299.2,5.1,10.6,335.9,0.26,-1.8,4.0,"09:20:48",1
"22/02/22","09:40",0.0,3.7,67.0,1016.8,305.7,5.4,9.6,316.2,0.28,-1.8,3.9,"09:39:54",1
"22/02/22","09:50",0.0,4.2,66.5,1016.8,294.2,4.9,7.5,316.2,0.31,-1.4,3.9,"09:40:48",1
"22/02/22","10:00",0.0,4.4,65.4,1017.1,293.2,4.1,6.5,278.5,0.33,-1.5,4.2,"09:51:36",1
"22/02/22","10:10",0.0,4.8,65.1,1017.1,290.2,3.7,6.3,294.5,0.36,-1.2,4.0,"10:04:28",1
"22/02/22","10:20",0.0,5.3,63.7,1017.1,276.7,3.4,4.9,261.0,0.38,-1.0,4.0,"10:19:10",1
"22/02/22","10:30",0.0,5.5,63.1,1017.5,288.4,3.5,7.4,336.7,0.40,-0.9,4.1,"10:25:28",1
"22/02/22","10:40",0.0,5.9,61.8,1017.5,280.5,3.6,6.5,307.6,0.43,-0.8,4.3,"10:31:52",1
"22/02/22","10:50",0.0,6.1,60.6,1017.5,292.9,4.1,7.2,310.7,0.45,-0.9,4.2,"10:40:48",1
"22/02/22","11:00",0.0,6.3,59.8,1017.3,294.8,4.4,7.7,348.9,0.48,-0.9,4.2,"10:54:00",1
"22/02/22","11:10",0.0,6.8,58.9,1017.5,295.4,3.5,5.1,312.9,0.51,-0.6,4.2,"11:01:44",1
"22/02/22","11:20",0.0,7.1,58.2,1017.5,280.4,3.2,5.1,284.6,0.52,-0.5,4.3,"11:15:54",1
"22/02/22","11:30",0.0,6.5,58.6,1017.5,304.0,4.5,8.7,323.0,0.35,-1.0,4.5,"11:22:40",1
"22/02/22","11:40",0.0,6.7,59.6,1017.5,305.2,4.7,10.5,342.2,0.46,-0.6,4.5,"11:32:04",1
"22/02/22","11:50",0.0,6.4,59.2,1017.5,303.8,4.5,8.3,328.2,0.29,-0.9,4.6,"11:42:32",1
"22/02/22","12:00",0.0,5.9,59.3,1017.5,304.8,4.7,8.7,327.9,0.17,-1.4,4.6,"11:58:52",1
"22/02/22","12:10",0.0,5.8,61.3,1017.5,318.2,3.5,5.5,304.7,0.11,-1.0,4.7,"12:02:42",1
"22/02/22","12:20",0.0,5.9,62.1,1017.3,325.8,3.9,6.3,328.9,0.23,-0.8,4.8,"12:11:26",1
"22/02/22","12:30",0.0,6.5,60.9,1017.5,314.4,3.9,6.7,330.0,0.37,-0.5,4.8,"12:23:02",1
"22/02/22","12:40",0.0,6.6,59.3,1017.3,321.4,3.7,6.3,339.6,0.24,-0.7,5.0,"12:39:42",1
"22/02/22","12:50",0.0,6.5,59.0,1017.3,308.6,4.6,7.4,326.4,0.17,-0.9,5.1,"12:49:12",1
"22/02/22","13:00",0.0,6.7,58.4,1017.1,305.5,4.4,6.7,324.7,0.25,-0.8,5.1,"12:57:12",1
"22/02/22","13:10",0.0,6.7,57.2,1016.8,322.4,4.6,8.6,336.8,0.24,-1.1,5.0,"13:08:34",1
"22/02/22","13:20",0.0,6.5,56.5,1016.6,332.4,5.1,11.2,329.5,0.19,-1.5,5.3,"13:16:00",1
"22/02/22","13:30",0.0,6.3,55.3,1016.6,326.4,5.6,10.8,348.8,0.16,-2.0,5.3,"13:27:48",1
"22/02/22","13:40",0.0,6.7,54.6,1015.9,301.7,4.7,8.1,341.2,0.26,-1.8,5.3,"13:36:08",1
"22/02/22","13:50",0.0,7.3,52.6,1016.4,308.8,5.7,9.5,342.4,0.42,-1.7,5.2,"13:47:34",1
"22/02/22","14:00",0.0,7.9,52.3,1016.4,323.6,5.7,13.9,345.4,0.49,-1.2,5.3,"13:53:32",1
"22/02/22","14:10",0.0,7.1,54.0,1016.6,306.0,5.6,10.6,327.8,0.31,-1.5,5.6,"14:04:22",1
"22/02/22","14:20",0.0,6.8,53.9,1016.6,299.4,4.4,8.9,320.4,0.19,-1.8,5.5,"14:18:22",1
"22/02/22","14:30",0.0,6.9,54.8,1016.8,309.0,5.5,9.5,321.1,0.30,-1.5,5.7,"14:24:58",1
"22/02/22","14:40",0.0,7.2,53.1,1016.8,294.9,5.1,8.3,348.5,0.42,-1.7,5.7,"14:32:28",1
"22/02/22","14:50",0.0,6.7,52.4,1016.6,302.1,5.4,8.6,330.6,0.28,-2.3,5.7,"14:46:18",1
"22/02/22","15:00",0.0,6.3,53.3,1016.8,312.4,5.6,7.8,327.7,0.12,-2.5,5.8,"14:51:48",1
"22/02/22","15:10",0.0,6.6,54.9,1016.8,312.4,5.2,13.3,324.3,0.20,-1.8,5.8,"15:00:40",1
"22/02/22","15:20",0.0,6.9,54.4,1017.1,310.5,4.7,7.3,351.9,0.30,-1.6,6.0,"15:16:38",1
"22/02/22","15:30",0.0,7.4,54.2,1017.1,324.8,4.2,8.0,324.8,0.32,-1.2,5.8,"15:29:50",1
"22/02/22","15:40",0.0,6.8,55.9,1017.3,331.5,4.5,8.2,330.2,0.21,-1.3,5.7,"15:35:08",1
"22/02/22","15:50",0.0,6.5,57.0,1017.3,341.2,5.4,10.0,337.5,0.23,-1.4,6.0,"15:45:20",1
"22/02/22","16:00",0.0,6.1,57.2,1017.3,348.7,5.2,11.0,322.2,0.23,-1.7,5.8,"15:51:10",1
"22/02/22","16:10",0.0,6.2,58.1,1017.1,340.2,5.0,9.3,342.7,0.21,-1.4,6.1,"16:01:00",1
"22/02/22","16:20",0.0,6.1,58.2,1017.3,343.1,4.7,8.2,351.8,0.20,-1.5,5.8,"16:18:52",1
"22/02/22","16:30",0.0,6.1,58.6,1017.1,352.2,5.0,8.1,321.2,0.17,-1.4,6.1,"16:24:28",1
"22/02/22","16:40",0.0,5.8,58.4,1017.3,354.1,6.1,11.9,328.2,0.17,-1.7,6.1,"16:33:14",1
"22/02/22","16:50",0.0,4.9,60.3,1018.0,345.2,6.5,10.4,328.0,0.09,-2.1,6.1,"16:47:06",1
"22/02/22","17:00",0.0,4.4,63.1,1017.5,328.7,6.9,12.5,326.1,0.04,-2.0,6.1,"16:55:12",1
"22/02/22","17:10",0.0,4.0,65.2,1018.2,331.1,6.1,10.4,326.9,0.02,-1.9,6.2,"17:00:02",1
"22/02/22","17:20",0.0,3.8,66.8,1018.0,333.9,7.0,11.8,312.8,0.01,-1.8,6.2,"17:19:44",1
"22/02/22","17:30",0.0,3.6,68.4,1018.0,323.5,7.5,12.6,333.4,0.01,-1.6,6.0,"17:29:00",1
"22/02/22","17:40",0.0,3.0,69.5,1018.0,330.7,8.0,12.7,336.0,0.00,-2.0,5.9,"17:35:04",1
"22/02/22","17:50",0.0,2.9,69.0,1018.5,328.0,9.3,15.4,322.4,0.00,-2.2,6.0,"17:48:38",1
"22/02/22","18:00",0.0,2.4,71.2,1018.2,325.7,8.1,12.8,304.6,0.00,-2.2,5.9,"17:52:50",1
"22/02/22","18:10",0.0,2.3,72.2,1018.0,325.8,6.5,11.9,315.3,0.00,-2.1,6.1,"18:09:10",1
"22/02/22","18:20",0.0,2.3,71.4,1018.0,330.5,6.1,9.4,318.7,0.00,-2.3,5.9,"18:17:44",1
"22/02/22","18:30",0.0,2.2,70.8,1018.0,320.8,5.6,8.6,328.6,0.00,-2.5,5.7,"18:20:24",1
"22/02/22","18:40",0.0,2.2,69.7,1017.8,324.4,6.1,8.6,323.5,0.00,-2.7,5.7,"18:38:40",1
"22/02/22","18:50",0.0,2.0,69.6,1018.2,310.2,4.5,6.6,307.1,0.00,-2.9,6.0,"18:40:18",1
"22/02/22","19:00",0.0,1.8,69.9,1018.5,311.4,4.1,7.2,331.5,0.00,-3.1,5.7,"18:51:18",1
"22/02/22","19:10",0.0,1.8,69.8,1018.2,298.2,3.4,5.7,277.2,0.00,-3.1,5.8,"19:06:42",1
"22/02/22","19:20",0.0,1.7,69.5,1018.5,292.5,2.7,6.4,330.6,0.00,-3.2,5.6,"19:10:16",1
"22/02/22","19:30",0.0,1.7,69.3,1018.7,308.3,2.6,7.5,333.5,0.00,-3.3,5.9,"19:29:28",1
"22/02/22","19:40",0.0,1.6,69.3,1018.7,300.6,2.7,4.7,294.8,0.00,-3.4,5.7,"19:30:56",1
"22/02/22","19:50",0.0,1.6,69.3,1019.0,330.3,3.5,7.1,324.5,0.00,-3.4,5.6,"19:47:06",1
"22/02/22","20:00",0.0,1.6,69.0,1019.2,320.3,3.6,9.4,323.6,0.00,-3.4,5.7,"19:56:48",1
"22/02/22","20:10",0.0,1.5,69.0,1019.4,310.1,3.1,7.4,333.4,0.00,-3.5,5.3,"20:09:40",1
"22/02/22","20:20",0.0,1.5,68.6,1019.2,315.6,4.0,7.7,338.8,0.00,-3.6,5.5,"20:15:22",1
"22/02/22","20:30",0.0,1.3,68.9,1019.0,314.1,3.0,6.8,337.5,0.00,-3.7,5.4,"20:24:08",1
"22/02/22","20:40",0.0,1.2,68.8,1019.2,299.7,2.5,4.9,307.1,0.00,-3.8,5.3,"20:30:08",1
"22/02/22","20:50",0.0,1.2,69.4,1019.4,285.3,2.2,5.9,277.6,0.00,-3.7,5.2,"20:49:36",1
"22/02/22","21:00",0.0,1.3,69.7,1019.7,303.7,3.1,5.9,316.7,0.00,-3.6,5.3,"20:59:52",1
"22/02/22","21:10",0.0,1.1,69.7,1019.2,290.5,2.2,5.8,328.0,0.00,-3.8,5.3,"21:00:16",1
"22/02/22","21:20",0.0,1.0,70.5,1019.7,290.9,2.7,4.5,312.9,0.00,-3.7,5.3,"21:17:28",1
"22/02/22","21:30",0.0,0.9,70.7,1019.2,324.9,1.3,2.4,327.7,0.00,-3.8,5.2,"21:26:48",1
"22/02/22","21:40",0.0,0.9,71.4,1019.4,232.5,1.5,3.4,248.8,0.00,-3.6,5.3,"21:39:44",1
"22/02/22","21:50",0.0,0.8,71.6,1019.4,258.3,1.3,3.7,254.0,0.00,-3.7,5.1,"21:42:32",1
"22/02/22","22:00",0.0,0.7,72.1,1019.9,194.8,1.2,3.3,309.5,0.00,-3.7,5.1,"21:59:20",1
"22/02/22","22:10",0.0,0.7,72.2,1019.9,259.0,1.7,3.4,245.0,0.00,-3.7,5.2,"22:07:36",1
"22/02/22","22:20",0.0,0.7,72.3,1019.9,287.1,1.7,4.7,295.6,0.00,-3.7,5.2,"22:19:38",1
"22/02/22","22:30",0.0,0.7,72.5,1019.9,280.2,1.8,4.7,332.8,0.00,-3.6,5.0,"22:22:32",1
"22/02/22","22:40",0.0,0.5,72.5,1019.7,264.5,1.0,2.4,317.3,0.00,-3.8,5.0,"22:31:36",1
"22/02/22","22:50",0.0,0.3,73.4,1019.4,287.5,1.3,2.5,206.1,0.00,-3.9,5.2,"22:49:36",1
"22/02/22","23:00",0.0,0.6,73.9,1019.4,278.3,1.8,5.0,306.5,0.00,-3.5,5.1,"22:56:24",1
"22/02/22","23:10",0.0,0.5,74.0,1019.4,313.8,2.8,4.5,329.4,0.00,-3.6,4.9,"23:02:40",1
"22/02/22","23:20",0.0,0.4,74.4,1019.4,281.9,1.8,3.6,315.3,0.00,-3.6,5.0,"23:16:16",1
"22/02/22","23:30",0.0,0.4,74.8,1019.4,300.4,3.2,6.0,313.4,0.00,-3.5,4.9,"23:29:54",1
"22/02/22","23:40",0.0,0.4,75.2,1019.2,293.2,3.2,4.9,310.3,0.00,-3.4,4.9,"23:35:30",1
"22/02/22","23:50",0.0,0.5,75.5,1019.2,297.9,3.5,5.6,331.1,0.00,-3.3,4.9,"23:40:24",1
"22/02/22","24:00",0.0,0.3,75.7,1019.2,303.5,2.3,4.3,306.3,0.00,-3.4,4.9,"23:52:40",1
